Temperature
16 16 16 17 14 12 13 14 14 15 14 14 14 15 14 14 14 14 14 14 14 14 14 14 14 14 14 14 14 14 14 14 15 14 14 14 15 15 15 14 15 15 15 15 14 14 14 14 14
15 16 16 16 12 13 13 14 14 14 15 14 14 14 13 13 13 13 13 14 14 14 14 14 14 14 14 14 14 14 14 14 14 14 14 14 14 14 14 14 14 14 14 14 14 14 14 14 14
15 16 16 12 12 13 14 14 14 14 14 14 13 13 12 12 12 13 13 13 13 14 14 14 13 13 13 13 13 13 14 14 14 14 14 14 14 14 14 14 14 14 14 14 14 14 14 14 14
15 15 14 11 13 13 14 14 13 13 14 14 13 12 12 12 12 13 13 13 13 13 13 13 13 13 13 13 13 13 13 13 14 14 14 14 14 14 14 14 14 14 14 14 13 13 14 14 14
15 14 11 11 12 13 13 13 14 13 13 13 13 11 11 12 12 12 13 13 13 13 13 13 13 13 13 13 13 13 13 13 13 13 13 13 13 13 13 13 13 13 13 13 13 13 13 13 13
14 11 10 11 12 13 12 13 13 12 12 12 12 11 11 12 12 12 12 12 13 13 13 13 13 13 13 13 13 13 13 13 13 13 13 13 13 13 13 13 13 13 13 13 13 13 13 13 13
12 10 10 11 12 12 13 13 13 12 11 12 12 11 11 12 12 12 12 12 12 12 12 12 12 12 12 12 12 12 13 13 13 13 13 13 13 13 13 13 13 13 13 13 13 13 13 13 13
13 9 10 10 11 12 12 13 13 12 12 12 12 11 11 12 12 12 12 12 12 12 12 12 12 12 12 12 12 12 12 12 12 12 12 13 13 12 12 13 13 13 13 12 12 12 12 12 12
12 9 10 10 11 12 12 12 12 12 12 12 12 12 12 12 12 11 11 11 12 11 12 12 12 12 12 12 12 12 12 12 12 12 12 12 12 12 12 12 12 12 12 12 12 12 12 12 12
11 9 10 11 11 11 11 11 12 11 11 11 11 11 12 12 12 11 11 11 12 11 11 11 11 11 11 11 11 11 11 11 11 11 12 12 12 12 12 12 12 12 12 12 12 12 12 12 12
10 9 10 10 11 11 11 11 11 11 10 11 11 11 11 11 11 11 11 11 11 11 11 11 11 11 11 11 11 11 11 11 11 11 11 11 11 11 11 11 11 11 11 11 11 11 11 11 11
9 9 10 10 11 11 10 10 10 10 11 12 12 12 12 11 11 11 11 11 11 11 11 10 10 11 11 11 11 11 11 11 11 11 11 11 11 11 11 11 11 11 11 11 11 11 11 11 10
9 9 9 10 10 10 10 9 9 10 11 11 11 11 11 11 11 11 10 10 10 10 10 10 10 10 10 10 10 10 10 10 10 10 10 10 10 10 10 10 10 10 10 10 10 10 10 10 10
8 8 9 9 10 10 9 9 9 10 10 11 11 10 10 10 10 10 10 10 10 10 10 10 10 10 10 10 10 10 10 10 10 10 10 10 10 10 10 10 10 10 10 10 10 10 10 10 9
9 8 8 8 9 9 9 8 8 10 10 10 10 10 10 10 10 10 10 10 10 10 10 10 10 10 9 9 9 9 9 9 9 9 9 9 9 9 9 9 9 9 9 9 9 9 9 9 9
8 8 8 8 8 8 9 8 8 9 9 9 9 9 9 9 9 9 9 9 9 9 9 9 9 9 9 9 9 9 9 9 9 8 8 8 8 9 9 9 9 9 9 9 9 9 9 9 9
7 7 7 8 8 8 8 7 7 8 8 8 8 8 9 9 9 9 9 9 9 9 9 9 9 9 9 9 9 8 8 8 8 8 8 8 8 8 8 8 8 8 8 8 8 8 8 8 8
6 6 7 7 7 7 7 6 7 7 7 7 7 8 8 8 9 9 9 9 9 9 9 9 9 9 8 8 8 8 8 8 8 8 8 8 8 8 7 8 7 7 7 8 8 8 7 7 8
6 6 6 6 7 6 6 6 6 6 6 6 6 7 7 8 8 8 8 9 8 8 8 8 8 8 8 8 8 8 8 7 7 7 7 7 7 7 7 7 7 7 7 7 7 7 7 7 7
6 6 6 6 6 6 5 5 5 5 5 6 6 7 7 7 8 8 8 8 8 8 8 8 8 8 8 8 8 7 7 7 7 7 7 7 7 7 7 7 6 6 6 6 6 6 6 6 6
6 5 5 5 5 5 5 5 5 5 5 6 6 7 7 7 7 8 8 8 8 8 8 8 8 8 7 7 7 7 7 7 6 6 6 6 6 6 6 6 6 6 6 6 6 6 5 5 5
6 5 5 5 5 4 5 4 5 4 4 5 5 6 7 7 7 7 7 7 7 7 7 7 7 7 7 7 7 6 6 6 6 6 6 6 6 5 5 5 5 5 5 5 5 5 5 5 5
5 5 4 4 4 3 3 4 4 4 4 5 4 5 6 7 7 7 7 7 7 7 7 7 7 6 6 6 6 6 6 6 6 5 5 5 5 5 5 5 5 5 5 5 5 4 4 4 4
4 4 3 2 2 3 3 3 4 3 4 4 4 5 6 6 7 7 7 7 7 6 6 6 6 6 6 6 6 5 5 5 5 5 5 5 5 5 5 4 4 4 4 4 4 4 4 4 3
4 3 3 3 2 3 3 3 3 3 3 3 3 4 5 6 6 6 6 6 6 6 6 6 5 5 5 5 5 5 5 5 5 4 4 4 4 4 4 4 4 4 4 4 3 3 3 3 3
3 4 3 3 3 2 2 2 3 3 3 3 4 4 5 5 5 5 5 6 6 5 5 5 5 5 5 5 5 4 4 4 4 4 4 4 4 4 3 3 3 3 3 3 3 3 3 3 3
3 3 3 2 1 1 2 2 2 3 2 2 3 4 4 5 5 5 5 5 5 5 5 5 5 4 4 4 4 4 4 4 4 3 3 3 3 3 3 3 3 3 3 2 2 2 2 2 2
3 2 1 2 2 3 2 2 3 3 3 2 2 3 4 4 4 4 4 4 4 4 4 4 4 4 4 4 4 4 3 3 3 3 3 3 3 3 2 2 2 2 2 2 2 2 2 2 1
2 2 2 1 1 2 2 3 3 2 2 2 2 3 4 4 4 4 4 4 4 4 4 4 4 3 3 3 3 3 3 3 3 3 3 2 2 2 2 2 2 2 2 2 2 1 1 1 1
1 1 1 2 1 0 1 2 3 1 1 1 2 3 3 4 4 4 4 3 4 3 3 3 3 3 3 3 3 3 3 3 2 2 2 2 2 2 2 2 1 2 1 1 1 1 1 1 1
Wind_Speed
10 5 2 4 5 4 3 4 2 1 1 1 1 3 5 4 3 2 1 1 2 2 2 5 7 8 9 9 9 9 10 11 11 11 10 10 11 12 12 12 12 12 12 12 12 13 13 14 14
5 2 5 5 4 2 5 4 4 3 2 3 4 4 4 2 2 2 1 1 3 4 4 5 8 8 8 8 9 9 9 10 11 11 10 10 11 12 12 12 12 12 12 12 12 13 13 13 13
3 3 4 4 4 6 5 2 3 0 2 2 3 4 2 1 1 1 1 1 5 5 5 6 8 8 8 8 8 8 9 9 10 10 10 9 10 11 12 12 12 12 12 12 12 12 13 12 12
3 4 5 3 5 5 4 2 2 2 2 3 4 3 1 2 0 0 2 3 6 5 6 7 8 8 8 8 8 8 8 8 9 9 9 9 10 11 12 12 11 12 12 12 12 12 12 12 12
4 4 3 1 5 3 2 2 1 2 1 2 3 3 1 3 3 3 4 5 6 5 7 7 8 8 8 8 8 7 8 8 8 8 9 9 9 10 11 11 11 11 11 12 12 12 11 11 11
4 4 3 5 5 3 2 2 1 1 1 1 3 4 1 2 3 4 5 5 6 6 7 7 8 8 8 7 7 7 7 7 8 8 8 8 8 9 10 10 10 10 10 11 11 11 11 11 10
4 4 4 4 3 3 2 1 2 2 2 2 3 4 1 0 2 4 5 6 6 7 7 7 7 7 8 8 7 7 7 7 7 8 8 8 8 8 9 9 9 9 10 10 10 10 10 10 10
4 4 2 3 4 3 1 1 1 3 3 1 4 5 4 3 4 5 5 6 5 6 6 7 7 8 7 7 8 8 8 8 8 8 9 9 9 8 8 8 8 9 9 9 9 10 10 10 10
3 3 4 5 5 3 1 1 1 1 4 2 1 1 1 7 7 6 5 4 4 4 4 5 6 7 7 7 8 9 9 10 10 10 10 10 9 9 8 8 8 8 9 8 9 10 10 10 10
3 3 6 3 3 2 1 1 1 2 2 1 1 2 4 7 8 7 5 4 3 2 2 4 5 5 6 6 7 8 8 9 9 9 9 9 8 8 8 8 8 8 9 9 9 10 10 10 9
2 4 3 1 1 1 0 0 0 3 2 4 4 4 6 6 7 7 5 5 4 3 2 2 3 4 5 5 6 6 6 7 8 8 8 8 8 7 8 7 7 8 8 8 8 9 9 9 8
2 1 2 1 1 0 1 1 1 2 5 3 4 7 7 7 8 7 6 5 4 3 2 2 3 3 4 5 4 5 5 5 6 6 7 7 6 5 6 6 6 6 6 6 7 6 7 8 7
2 1 1 1 2 1 0 2 2 4 3 1 3 6 8 7 7 5 5 5 4 3 3 2 2 3 3 4 4 4 4 4 5 5 6 6 5 4 4 4 5 5 5 5 5 5 6 6 6
1 1 2 2 2 1 2 3 3 6 1 2 3 6 7 7 7 5 5 5 5 4 4 3 3 3 3 3 3 3 4 4 5 5 5 5 5 4 4 4 4 4 4 4 4 4 4 4 4
0 1 3 2 1 2 1 5 6 5 2 2 3 5 6 6 6 7 7 6 6 5 4 3 3 3 3 3 3 3 4 4 4 4 4 5 5 4 4 3 3 3 4 4 5 5 4 4 3
2 2 2 3 0 1 3 8 5 3 3 4 5 5 6 6 6 6 6 5 5 5 5 4 3 3 3 3 3 3 3 4 3 3 3 4 4 4 4 3 2 3 4 4 3 3 2 2 2
2 1 3 3 1 0 2 7 4 2 3 5 6 7 6 6 5 5 5 6 6 6 5 4 4 3 3 3 3 3 3 3 3 3 3 3 3 4 4 3 2 3 3 3 2 2 2 2 2
3 3 2 4 3 1 4 8 8 4 5 7 7 7 6 7 7 5 5 5 5 5 5 5 4 4 3 3 2 2 2 2 2 2 2 2 3 3 3 3 3 3 2 2 2 2 2 1 1
2 2 3 4 2 2 6 10 10 6 6 7 7 7 7 7 5 4 4 5 5 5 5 5 5 4 4 2 2 2 1 1 1 1 2 2 2 3 3 2 2 2 2 1 2 2 2 2 2
2 3 4 5 2 1 5 10 8 5 6 7 7 8 8 5 3 3 4 4 5 5 5 5 5 4 4 3 3 2 2 2 1 0 1 2 2 2 2 3 2 1 2 2 2 2 1 1 2
3 4 4 4 4 2 4 7 5 4 3 4 4 5 5 6 5 4 5 5 4 5 5 5 5 4 3 3 2 2 2 1 1 0 1 0 1 2 2 2 2 2 2 2 1 2 2 1 0
4 4 4 3 1 4 2 5 6 4 5 4 5 4 4 4 4 4 4 4 4 4 4 4 4 3 3 3 4 4 3 3 3 2 2 1 1 2 2 2 3 2 2 2 2 2 1 2 1
3 1 1 0 1 3 2 4 8 3 4 5 5 4 4 3 4 4 4 5 4 3 3 3 3 3 3 3 4 4 4 3 1 1 1 1 1 1 2 2 2 2 2 2 2 2 2 1 2
3 3 3 3 2 4 5 5 7 4 5 4 4 3 3 2 3 3 3 3 3 3 3 3 3 3 3 3 3 4 5 4 3 2 2 2 1 1 1 1 2 2 2 2 2 2 2 2 2
3 3 3 4 2 6 3 4 8 6 4 4 4 4 3 2 1 1 2 2 3 3 4 4 4 3 3 3 4 4 4 5 5 4 4 3 2 2 2 2 2 2 3 3 3 2 2 3 2
3 5 5 4 4 5 2 6 7 4 4 3 3 2 1 1 0 0 2 2 2 3 3 4 4 4 4 4 4 4 4 3 3 3 3 4 3 3 2 3 3 2 2 2 3 2 2 2 2
4 3 3 3 1 3 6 6 7 2 3 2 2 2 1 1 1 1 1 1 2 3 3 4 4 3 3 3 3 3 3 3 3 3 3 3 3 2 3 3 3 2 2 2 2 2 2 2 2
2 5 3 4 3 4 6 5 5 4 4 3 3 3 3 2 1 1 1 1 2 2 2 3 3 3 3 3 3 2 3 3 3 2 3 3 3 2 2 2 2 2 2 3 2 2 2 2 2
2 2 3 3 3 4 4 6 4 5 5 4 5 4 3 2 2 2 2 1 1 1 1 2 2 2 2 3 3 2 2 2 2 2 3 3 3 3 3 3 3 3 2 3 3 3 3 3 3
2 4 5 4 4 4 4 7 4 4 4 4 4 4 3 2 2 2 2 1 1 1 1 2 2 2 3 2 2 2 2 1 2 2 2 2 2 2 3 3 3 3 3 3 3 4 3 4 4
Wind_Direction
338 349 55 54 57 55 238 246 218 236 184 43 63 98 126 126 146 161 48 49 81 119 140 132 111 104 102 98 96 92 90 92 94 92 89 93 93 91 89 84 80 79 80 80 80 81 82 80 80
332 5 53 62 103 179 257 241 216 213 169 108 57 63 82 75 43 74 42 20 90 99 104 112 107 104 102 100 100 97 94 94 96 94 91 93 94 94 91 85 81 78 80 82 82 81 81 80 78
341 42 82 86 148 193 219 221 204 190 115 107 81 53 83 84 62 109 349 83 89 82 86 97 107 104 102 101 102 104 99 96 98 99 95 93 93 93 91 87 83 81 79 80 81 81 82 82 80
51 46 62 100 208 221 216 220 165 128 64 64 108 81 48 17 324 85 73 94 98 77 79 91 98 98 98 99 99 106 105 100 99 99 97 96 94 92 89 86 85 84 80 79 78 78 80 84 82
54 80 86 212 233 238 239 252 175 143 119 72 113 120 68 1 56 90 93 94 98 77 73 85 88 92 96 93 92 100 106 106 104 101 97 94 93 94 90 85 85 85 81 80 78 78 80 80 80
57 77 130 218 232 239 250 254 149 124 133 107 126 129 146 27 81 100 98 92 87 83 75 80 84 82 85 91 92 93 97 104 107 105 101 97 95 95 92 88 84 85 83 80 79 77 76 77 76
111 116 177 200 217 238 235 210 155 164 171 197 159 135 168 182 114 107 97 93 82 77 73 68 73 77 76 78 83 83 89 94 102 105 99 96 94 94 90 87 85 85 84 83 80 77 75 73 72
127 120 157 196 197 234 234 149 149 165 185 139 135 150 199 195 133 113 97 88 83 72 66 66 69 71 71 74 74 72 76 84 89 86 83 87 89 86 81 79 82 82 82 81 78 75 72 70 70
98 108 200 203 189 215 165 127 358 51 115 97 89 165 197 131 127 115 99 85 83 77 63 62 67 68 70 76 75 69 72 78 81 78 76 78 74 71 70 74 77 80 78 79 78 74 71 68 64
105 178 215 211 184 179 166 154 166 89 91 107 58 43 107 128 135 133 136 144 132 115 75 59 65 68 70 78 77 73 72 73 75 76 75 77 73 70 70 68 71 74 73 74 72 71 68 64 60
144 192 215 255 228 159 186 305 184 143 211 209 191 165 144 147 147 153 157 159 157 142 99 58 66 73 78 81 80 76 76 73 72 70 74 77 75 70 66 64 59 63 65 64 65 63 61 61 59
146 253 218 255 344 16 213 206 270 207 227 228 179 158 155 167 173 174 170 167 154 141 132 97 74 73 78 86 86 86 82 79 73 67 75 79 75 66 63 64 62 63 64 65 65 67 65 63 59
195 245 297 309 17 283 233 240 227 253 269 7 131 152 167 179 187 182 167 160 156 157 154 142 108 96 88 85 85 86 84 87 85 78 74 80 81 74 64 64 64 65 68 69 68 71 68 63 57
198 212 293 302 287 262 214 265 244 257 230 118 157 179 188 187 190 181 174 174 176 176 174 157 138 123 111 100 94 96 92 91 90 87 84 88 89 84 75 61 60 63 69 74 76 79 77 70 63
99 10 335 301 264 240 177 284 238 239 173 195 214 206 200 195 189 193 193 188 185 180 174 167 155 132 123 115 106 103 101 99 93 89 93 93 93 94 92 83 68 59 67 74 76 75 73 69 59
49 46 306 304 303 253 172 261 256 201 175 221 238 227 215 212 205 206 197 191 185 175 171 169 154 140 137 126 112 109 111 111 106 98 97 98 99 97 95 91 70 59 71 75 83 77 70 58 49
31 223 251 297 333 9 191 259 271 215 208 235 241 233 222 223 224 219 203 194 187 178 169 163 155 151 147 129 114 112 112 110 109 108 105 105 112 109 104 96 76 74 72 72 76 67 80 71 43
222 215 246 258 308 340 258 264 279 263 233 241 245 237 230 229 234 225 210 196 182 171 164 163 158 154 142 129 111 105 94 90 97 105 110 112 112 116 110 100 85 85 78 62 70 75 62 85 58
188 202 251 264 293 288 263 272 276 269 251 249 249 239 233 239 240 224 209 194 173 166 163 167 166 165 156 154 154 156 169 162 144 100 101 114 114 120 120 111 103 97 103 96 86 87 71 55 52
199 245 265 289 312 287 290 281 275 256 240 239 242 243 235 235 236 223 206 191 182 180 177 174 176 174 174 176 173 172 165 169 173 99 92 110 118 122 135 127 134 124 108 91 83 83 86 63 60
247 228 241 262 316 346 317 298 279 274 257 261 256 251 235 221 226 224 208 202 191 191 187 184 182 175 172 162 139 116 101 90 120 159 188 160 136 133 140 151 148 147 142 149 145 126 122 137 49
253 238 228 256 313 301 354 295 283 276 289 276 268 260 249 238 223 216 208 207 199 195 178 171 172 171 166 159 160 165 175 189 210 206 204 203 162 158 160 161 162 170 166 164 170 139 153 146 168
210 70 127 228 203 298 274 240 282 304 278 274 268 256 255 245 219 209 208 208 199 178 166 167 162 168 160 162 174 176 189 202 198 170 176 186 187 191 182 169 170 174 177 173 163 162 164 161 169
143 58 46 44 70 271 240 210 276 253 245 274 276 268 258 259 233 209 198 181 182 171 164 172 171 179 177 175 180 188 196 195 185 190 198 210 212 211 211 191 186 189 184 185 186 181 177 183 175
91 85 15 348 334 252 230 218 252 258 249 244 260 270 270 255 225 204 187 189 190 183 180 183 181 195 197 193 194 200 207 202 201 203 205 204 211 225 221 215 207 203 202 197 187 179 186 186 180
180 153 171 218 239 281 272 237 255 261 271 266 263 270 306 334 355 233 216 201 199 198 190 188 191 202 202 202 211 208 205 206 212 208 203 207 216 223 216 218 221 219 210 201 186 184 193 180 187
149 185 169 152 206 276 269 281 294 270 293 306 316 338 300 268 227 247 282 236 213 209 204 195 190 204 209 210 215 213 208 207 215 213 208 213 213 212 204 208 212 213 205 192 180 188 199 191 198
154 145 126 157 194 256 282 270 255 263 268 285 302 294 282 293 305 291 273 271 241 221 215 193 190 207 210 205 216 227 220 211 207 203 210 213 210 202 190 195 202 202 201 192 180 187 196 194 214
135 149 162 164 185 197 264 268 232 225 239 247 260 265 262 259 264 273 280 293 291 238 198 194 203 210 218 216 214 218 220 205 190 200 218 218 210 195 191 197 199 201 205 198 192 207 201 206 225
201 190 166 185 228 206 226 268 278 232 260 258 266 271 267 254 250 256 268 301 331 299 230 212 216 217 224 214 205 212 210 192 199 218 230 219 209 197 193 194 199 208 210 206 203 213 217 216 229
Height
1500 1500 1502 1504 1508 1519 1520 1514 1510 1509 1509 1509 1508 1509 1510 1514 1517 1522 1518 1517 1518 1520 1521 1523 1525 1526 1527 1527 1528 1529 1529 1529 1530 1530 1531 1531 1532 1532 1532 1532 1533 1533 1533 1533 1533 1534 1534 1534 1534
1499 1501 1503 1504 1514 1524 1519 1511 1510 1508 1508 1508 1509 1509 1511 1513 1514 1516 1516 1517 1519 1520 1522 1523 1525 1526 1527 1528 1528 1529 1529 1530 1530 1531 1531 1532 1532 1533 1533 1533 1534 1534 1534 1534 1534 1534 1534 1535 1535
1499 1501 1503 1507 1515 1518 1513 1508 1508 1507 1507 1508 1509 1510 1512 1514 1514 1515 1516 1517 1519 1521 1522 1523 1525 1526 1527 1528 1528 1529 1530 1530 1531 1531 1532 1532 1533 1533 1533 1534 1534 1535 1535 1535 1535 1535 1535 1535 1536
1500 1502 1504 1510 1512 1510 1507 1506 1506 1507 1508 1508 1509 1511 1513 1515 1515 1516 1517 1518 1519 1521 1522 1523 1524 1526 1527 1528 1528 1529 1529 1530 1531 1531 1532 1533 1533 1534 1534 1534 1535 1535 1535 1535 1535 1535 1536 1536 1536
1500 1501 1508 1513 1509 1507 1506 1505 1506 1506 1508 1509 1510 1511 1513 1515 1515 1516 1517 1518 1519 1520 1522 1523 1524 1525 1526 1527 1528 1528 1529 1530 1531 1531 1532 1533 1533 1534 1534 1535 1535 1535 1536 1536 1536 1536 1536 1537 1537
1500 1502 1513 1514 1508 1506 1505 1505 1506 1506 1508 1509 1510 1511 1513 1514 1515 1516 1517 1519 1520 1521 1522 1523 1524 1525 1526 1527 1528 1528 1529 1529 1530 1531 1532 1532 1533 1534 1534 1535 1535 1535 1536 1536 1536 1536 1537 1537 1537
1501 1505 1510 1509 1508 1506 1505 1504 1505 1506 1507 1509 1510 1511 1512 1514 1515 1516 1518 1519 1520 1521 1522 1522 1524 1525 1526 1526 1527 1528 1528 1529 1530 1531 1531 1532 1533 1533 1534 1534 1535 1535 1536 1536 1536 1536 1537 1537 1537
1499 1504 1508 1509 1507 1505 1504 1504 1504 1505 1506 1508 1509 1510 1511 1513 1514 1516 1517 1518 1520 1521 1521 1522 1523 1524 1525 1526 1526 1527 1527 1528 1529 1530 1531 1532 1533 1533 1534 1534 1535 1535 1535 1536 1536 1536 1536 1536 1537
1499 1507 1508 1506 1505 1504 1503 1504 1505 1505 1506 1507 1508 1509 1510 1511 1513 1515 1516 1517 1519 1520 1520 1521 1522 1523 1524 1525 1525 1526 1527 1527 1528 1529 1530 1531 1532 1532 1533 1534 1534 1535 1535 1535 1535 1536 1536 1536 1536
1499 1506 1503 1501 1501 1502 1502 1503 1504 1505 1506 1507 1507 1508 1509 1511 1511 1512 1514 1516 1517 1518 1519 1520 1521 1522 1523 1524 1524 1525 1526 1527 1527 1528 1529 1530 1531 1532 1532 1533 1534 1534 1534 1534 1534 1535 1535 1535 1535
1498 1501 1500 1500 1500 1501 1502 1503 1504 1504 1506 1505 1506 1507 1508 1509 1510 1512 1513 1515 1516 1517 1519 1519 1520 1521 1522 1523 1523 1524 1525 1526 1527 1527 1528 1529 1530 1531 1531 1532 1532 1533 1533 1533 1533 1534 1534 1534 1534
1499 1499 1499 1499 1500 1501 1502 1502 1504 1503 1504 1504 1505 1505 1507 1508 1509 1510 1512 1514 1515 1517 1517 1518 1519 1520 1521 1522 1522 1523 1524 1525 1525 1526 1527 1528 1529 1529 1530 1530 1531 1532 1532 1532 1532 1533 1533 1533 1534
1498 1499 1499 1499 1499 1500 1501 1502 1502 1502 1502 1503 1503 1504 1505 1507 1508 1510 1511 1513 1514 1515 1516 1517 1518 1519 1520 1521 1521 1522 1523 1524 1524 1525 1526 1527 1527 1528 1529 1529 1530 1530 1531 1531 1531 1531 1531 1532 1532
1497 1498 1498 1498 1498 1499 1500 1500 1501 1499 1501 1502 1502 1503 1504 1505 1506 1508 1509 1511 1512 1513 1514 1515 1516 1517 1519 1519 1520 1521 1522 1523 1523 1524 1525 1525 1526 1526 1527 1528 1529 1529 1529 1529 1530 1530 1530 1530 1531
1497 1499 1498 1498 1498 1499 1499 1500 1499 1498 1500 1500 1500 1501 1502 1503 1505 1506 1507 1508 1510 1511 1512 1514 1515 1516 1517 1518 1519 1520 1520 1521 1522 1522 1523 1524 1524 1524 1525 1526 1527 1527 1527 1528 1528 1528 1528 1528 1529
1498 1501 1502 1499 1498 1498 1502 1500 1496 1497 1498 1498 1499 1500 1500 1501 1502 1504 1505 1507 1508 1509 1510 1512 1513 1514 1515 1516 1517 1518 1519 1519 1520 1521 1521 1522 1522 1523 1523 1524 1525 1525 1525 1526 1526 1526 1526 1526 1526
1503 1505 1503 1501 1499 1498 1500 1499 1495 1495 1495 1496 1496 1497 1497 1498 1500 1502 1503 1504 1506 1507 1508 1509 1511 1512 1513 1514 1515 1516 1517 1517 1518 1519 1520 1520 1520 1521 1521 1522 1522 1523 1523 1524 1524 1524 1524 1524 1524
1505 1505 1503 1503 1500 1499 1500 1497 1493 1493 1493 1493 1494 1494 1495 1495 1497 1499 1500 1502 1503 1505 1506 1507 1508 1510 1511 1512 1513 1514 1514 1515 1516 1516 1517 1518 1518 1519 1519 1520 1520 1520 1521 1521 1521 1521 1521 1522 1522
1502 1503 1504 1503 1500 1500 1499 1496 1492 1491 1491 1490 1491 1491 1491 1492 1494 1496 1497 1499 1500 1502 1503 1505 1506 1507 1508 1509 1510 1511 1511 1512 1513 1514 1515 1515 1516 1516 1517 1517 1518 1518 1518 1518 1519 1519 1519 1519 1519
1502 1504 1505 1503 1500 1500 1500 1495 1490 1488 1488 1488 1487 1487 1488 1489 1490 1492 1493 1495 1497 1499 1500 1502 1503 1505 1506 1507 1507 1508 1509 1510 1511 1512 1512 1513 1513 1514 1514 1515 1515 1515 1516 1516 1516 1516 1517 1517 1517
1502 1504 1504 1503 1502 1501 1501 1494 1490 1487 1486 1485 1484 1485 1485 1486 1487 1489 1490 1492 1494 1496 1497 1499 1501 1502 1503 1504 1505 1506 1507 1507 1508 1508 1509 1510 1510 1511 1512 1512 1513 1513 1513 1513 1514 1514 1514 1515 1515
1502 1501 1502 1502 1505 1508 1505 1504 1491 1487 1485 1483 1482 1482 1483 1484 1485 1486 1488 1490 1491 1493 1495 1496 1498 1499 1500 1501 1502 1502 1503 1504 1504 1505 1506 1507 1508 1508 1509 1509 1510 1510 1510 1510 1510 1511 1512 1512 1512
1501 1501 1503 1504 1506 1509 1508 1508 1494 1488 1485 1482 1481 1481 1481 1482 1483 1484 1486 1487 1489 1491 1492 1494 1495 1496 1497 1498 1499 1500 1500 1501 1502 1502 1503 1504 1505 1505 1506 1506 1506 1507 1507 1507 1507 1508 1509 1509 1510
1501 1504 1506 1509 1511 1512 1507 1508 1496 1489 1484 1481 1480 1480 1480 1480 1481 1482 1484 1486 1487 1488 1489 1491 1492 1493 1494 1495 1496 1496 1497 1498 1499 1499 1500 1500 1501 1502 1502 1503 1503 1503 1504 1504 1505 1505 1506 1506 1506
1502 1508 1515 1515 1519 1513 1506 1505 1495 1484 1481 1480 1479 1478 1478 1478 1479 1480 1481 1483 1484 1486 1487 1489 1489 1490 1491 1492 1493 1493 1494 1495 1495 1496 1496 1497 1498 1498 1499 1499 1499 1500 1500 1501 1501 1502 1502 1503 1503
1502 1505 1513 1514 1515 1511 1507 1504 1489 1481 1479 1478 1477 1476 1476 1477 1478 1479 1480 1481 1482 1484 1485 1486 1487 1488 1488 1489 1490 1491 1491 1492 1492 1493 1493 1494 1494 1495 1495 1495 1496 1497 1497 1497 1498 1498 1499 1499 1499
1502 1506 1505 1513 1518 1517 1506 1499 1487 1479 1478 1477 1476 1475 1475 1476 1477 1478 1479 1480 1481 1481 1482 1483 1484 1485 1485 1486 1487 1487 1488 1489 1489 1490 1490 1491 1491 1491 1492 1492 1493 1493 1493 1494 1494 1494 1495 1496 1496
1500 1503 1509 1512 1512 1509 1503 1500 1490 1480 1478 1477 1476 1475 1475 1475 1476 1477 1477 1478 1479 1479 1480 1481 1481 1482 1483 1483 1484 1484 1485 1485 1486 1486 1487 1487 1488 1488 1488 1489 1489 1490 1490 1490 1491 1491 1491 1492 1492
1503 1504 1505 1509 1509 1508 1506 1493 1480 1478 1476 1476 1475 1474 1474 1474 1474 1475 1476 1476 1476 1477 1478 1478 1479 1479 1480 1480 1481 1481 1482 1482 1482 1483 1483 1484 1484 1484 1485 1485 1486 1486 1487 1487 1487 1487 1488 1488 1488
1501 1501 1504 1506 1508 1510 1509 1494 1475 1475 1474 1474 1474 1473 1473 1473 1473 1474 1474 1474 1474 1475 1475 1475 1476 1477 1477 1478 1478 1478 1479 1479 1479 1479 1480 1480 1481 1481 1481 1482 1483 1483 1484 1484 1484 1484 1484 1484 1484